Estherville, IA

2:46 AM CDT on October 24, 2017 (GMT -0500)
Estherville Municipal

Weather History for KEST - November, 2011

Change the Weather History Date:

Friday, November 25, 2011

  Actual Average Record
Temperature  
Mean Temperature 46 °F 27 °F  
Max Temperature 53 °F 36 °F 70 °F (1960)
Min Temperature 38 °F 18 °F -9 °F (1977)
Degree Days  
Heating Degree Days 19 38  
Month to date heating degree days 687 774  
Since 1 July heating degree days 1311 1523  
Cooling Degree Days 0 0  
Month to date cooling degree days 0 0  
Year to date cooling degree days 767 593  
Moisture  
Dew Point 44 °F    
Average Humidity 88    
Maximum Humidity 100    
Minimum Humidity 76    
Precipitation  
Precipitation 0.00 in 0.06 in 0.35 in (1951)
Month to date precipitation 0.05 1.42  
Year to date precipitation 19.02  
Sea Level Pressure  
Sea Level Pressure 29.66 in    
Wind  
Wind Speed 12 mph (South)    
Max Wind Speed 21 mph    
Max Gust Speed 25 mph    
Visibility 6 miles    
Events      
T = Trace of Precipitation, MM = Missing Value Source: NWS Daily Summary

Daily Weather History Graph

Daily Weather History Graph

Search for Another Location

Airport or City:

Trip Planner

Search our weather history database for the weather conditions in past years. The results will help you decide how hot, cold, wet, or windy it might be!

Date:

Astronomy

Nov. 25, 2011 Rise Set
Actual Time 7:24 AM CST 4:46 PM CST
Civil Twilight 6:53 AM CST 5:18 PM CST
Nautical Twilight 6:17 AM CST 5:53 PM CST
Astronomical Twilight 5:43 AM CST 6:27 PM CST
Moon 7:55 AM CST (11/25) 5:13 PM CST (11/25)
Length of Visible Light 10h 25m
Length of Day
9h 22m
New Moon, 0% of the Moon is Illuminated
Nov 25
New Moon
Dec 2
First Quarter
Dec 10
Full
Dec 17
Last Quarter
Dec 24
New

Hourly Weather History & Observations

Time (CST) Temp. Windchill Dew Point Humidity Pressure Visibility Wind Dir Wind Speed Gust Speed Precip Events Conditions
1:52 AM 43.0 °F 37.7 °F 37.9 °F 82% 29.71 in 10.0 mi SSW 9.2 mph - N/A   Clear
2:52 AM 45.0 °F 39.3 °F 41.0 °F 86% 29.71 in 10.0 mi SSW 11.5 mph - N/A   Clear
3:52 AM 44.1 °F 38.1 °F 41.0 °F 89% 29.69 in 10.0 mi South 11.5 mph - N/A   Clear
4:52 AM 39.9 °F 32.5 °F 37.9 °F 93% 29.70 in 8.0 mi South 12.7 mph - N/A   Clear
5:52 AM 39.9 °F 33.9 °F 39.0 °F 97% 29.70 in 8.0 mi South 9.2 mph - N/A   Clear
6:52 AM 37.9 °F 32.7 °F 37.0 °F 97% 29.70 in 6.0 mi South 6.9 mph - N/A   Clear
7:52 AM 39.9 °F 35.1 °F 39.0 °F 97% 29.69 in 4.0 mi South 6.9 mph - N/A   Clear
8:52 AM 42.1 °F 36.1 °F 41.0 °F 96% 29.70 in 4.0 mi South 10.4 mph - N/A   Scattered Clouds
9:01 AM 44.6 °F 39.7 °F 42.8 °F 93% 29.69 in 4.0 mi South 9.2 mph - N/A   Mostly Cloudy
9:14 AM 44.6 °F 38.8 °F 42.8 °F 93% 29.69 in 4.0 mi SSW 11.5 mph - N/A   Overcast
10:52 AM 48.9 °F - 45.0 °F 86% 29.70 in 5.0 mi SW 17.3 mph 25.3 mph N/A   Overcast
11:48 AM 50.0 °F - 44.6 °F 82% 29.65 in 6.0 mi SSW 13.8 mph - N/A   Haze
11:52 AM 50.0 °F - 45.0 °F 83% 29.67 in 6.0 mi SSW 16.1 mph 23.0 mph N/A   Haze
12:03 PM 50.0 °F - 44.6 °F 82% 29.66 in 5.0 mi SSW 16.1 mph 23.0 mph N/A   Haze
12:42 PM 51.8 °F - 44.6 °F 76% 29.64 in 5.0 mi SSW 13.8 mph - N/A   Haze
12:52 PM 51.1 °F - 45.0 °F 80% 29.65 in 6.0 mi SSW 13.8 mph - N/A   Haze
1:30 PM 51.8 °F - 44.6 °F 76% 29.64 in 6.0 mi South 19.6 mph - N/A   Haze
1:50 PM 51.8 °F - 44.6 °F 76% 29.62 in 6.0 mi South 18.4 mph - N/A   Haze
1:52 PM 52.0 °F - 45.0 °F 77% 29.63 in 6.0 mi South 16.1 mph - N/A   Haze
2:52 PM 53.1 °F - 46.0 °F 77% 29.63 in 6.0 mi South 13.8 mph - N/A   Haze
3:33 PM 53.6 °F - 46.4 °F 77% 29.61 in 5.0 mi South 17.3 mph - N/A   Haze
3:52 PM 52.0 °F - 45.0 °F 77% 29.63 in 5.0 mi South 17.3 mph - N/A   Haze
5:29 PM 51.8 °F - 44.6 °F 76% 29.62 in 6.0 mi South 11.5 mph - N/A   Haze
5:52 PM 51.1 °F - 45.0 °F 80% 29.65 in 6.0 mi South 9.2 mph - N/A   Haze
6:52 PM 51.1 °F - 45.0 °F 80% 29.65 in 7.0 mi South 11.5 mph - N/A   Overcast
7:19 PM 51.8 °F - 44.6 °F 76% 29.64 in 6.0 mi South 11.5 mph - N/A   Haze
7:52 PM 51.1 °F - 45.0 °F 80% 29.66 in 6.0 mi South 15.0 mph - N/A   Haze
8:01 PM 51.8 °F - 44.6 °F 76% 29.64 in 6.0 mi South 13.8 mph - N/A   Haze
8:52 PM 50.0 °F - 45.0 °F 83% 29.65 in 6.0 mi South 13.8 mph - N/A   Haze
10:27 PM 48.2 °F - 46.4 °F 93% 29.64 in 4.0 mi South 12.7 mph - N/A   Overcast
10:38 PM 48.2 °F - 46.4 °F 93% 29.64 in 4.0 mi South 13.8 mph - N/A   Overcast
10:52 PM 48.9 °F - 46.0 °F 90% 29.65 in 4.0 mi South 12.7 mph 20.7 mph N/A   Overcast
11:52 PM 48.9 °F - 46.9 °F 93% 29.65 in 4.0 mi South 10.4 mph - N/A   Overcast